Regional Weather Roundup
Issued by NWS Cleveland, OH

Home | Current Version | Previous Version | Text Only | Print | Product List | Glossary On
Versions: 1 2 3 4 5 6 7 8 9 10 11 12 13 14 15 16 17 18 19 20 21 22 23 24 25 26 27 28 29 30 31 32 33 34 35 36 37 38 39 40 41 42 43 44 45 46 47 48 49 50
000
ASUS41 KCLE 010112
RWRCLE
OHIO REGIONAL WEATHER ROUNDUP
NATIONAL WEATHER SERVICE WILMINGTON, OH
900 PM EDT SUN APR 30 2017

NOTE: "FAIR" INDICATES FEW OR NO CLOUDS BELOW 12,000 FEET WITH NO
SIGNIFICANT WEATHER AND/OR OBSTRUCTIONS TO VISIBILITY.

OHZ001>008-015>018-024>027-034-035-043-044-010200-
   NORTHWEST OHIO

CITY           SKY/WX    TMP DP  RH WIND       PRES   REMARKS
DEFIANCE       MOCLDY    62  61  96 E5        29.75F
FINDLAY        FAIR      65  61  87 E8        29.76F
TOLEDO EXPRESS MOCLDY    54  54 100 E7        29.78F FOG
TOLEDO EXEC    CLOUDY    56  56 100 E5        29.81F
LIMA           FAIR      65  64  97 SE8       29.76F
$$

OHZ009>014-019>023-028>033-038-089-010200-
   NORTHEAST OHIO

CITY           SKY/WX    TMP DP  RH WIND       PRES   REMARKS
CLE-HOPKINS    LGT RAIN  67  58  72 NW13      29.88R
CLE-LAKEFRONT  MOCLDY    60  57  89 NW10G20   29.86R
CUY CO. ARPT   LGT RAIN  75  59  57 NW24G43   29.87R
LORAIN-ELYRIA  CLOUDY    60  55  83 N6        29.86S
ASHTABULA      FAIR      62  59  90 CALM      29.85F
AKRON-CANTON   FAIR      73  63  70 S7        29.86S
WOOSTER        CLOUDY    73  65  75 S7        29.85F
MANSFIELD      CLOUDY    76  63  64 S9        29.85R
YOUNGSTOWN     MOCLDY    72  63  73 S5        29.87S
$$

OHZ042-051>053-060>062-070>072-077>081-010200-
  SOUTHWEST OHIO

CITY           SKY/WX    TMP DP  RH WIND       PRES   REMARKS
CINC-COVINGTON LGT RAIN  71  64  78 SE25G31   29.78F
CINC-LUNKEN    RAIN      72  66  81 S17G33    29.83R
HAMILTON       LGT RAIN  76  62  62 S14G35    29.77F
DAYTON         CLOUDY    78  59  51 S21G29    29.76F
WRIGHT-PAT AFB MOCLDY    79  60  53 S17       29.78F
DAYTON GENERAL FAIR      78  59  51 S18G26    29.79S
WILMINGTON     FAIR      76  62  62 S10       29.82F
$$

OHZ036-037-039>041-045>050-054>059-063>069-073>076-082>088-010200-
  CENTRAL AND SOUTHEAST OHIO

CITY           SKY/WX    TMP DP  RH WIND       PRES   REMARKS
COLUMBUS       CLOUDY    78  67  68 SE6       29.82F
OSU AIRPORT    FAIR      78  64  61 S10       29.81F
BOLTON FIELD   FAIR      74  67  76 S8        29.83S
RICKENBACK AFB FAIR      75  67  77 S8        29.82S
NEWARK         FAIR      74  68  81 CALM      29.84S
MARION         CLOUDY    69  63  81 NE6       29.82F
LANCASTER      FAIR      79  61  53 S5        29.85S
ZANESVILLE     FAIR      77  61  57 S6        29.85F
NEW PHILLY     FAIR      69  68  96 E5        29.86S
$$




USA.gov is the U.S. government's official web portal to all federal, state and local government web resources and services.